Location: Shenandoah County Park
(38.9356°N, 78.4524°W)
Time: 11:38:50
(UTC-05:00)

Vanguard 3 - All Passes

Search period start: 11 December 2023 00:00
Search period end: 21 December 2023 00:00
Orbit: 507 x 3241 km, 33.3° (Epoch: 10 December)

Date Brightness Start Highest point End Pass type
(mag) Time Alt. Az. Time Alt. Az. Time Alt. Az.
11 Dec - 00:55:51 10° W 01:04:20 36° SSW 01:09:32 10° SE night (unlit)
11 Dec - 16:51:40 10° S 17:05:50 26° SE 17:17:48 10° E visible
11 Dec - 19:02:47 10° SW 19:20:26 49° SSE 19:32:18 10° E visible
11 Dec - 21:18:38 10° WSW 21:34:43 66° S 21:43:54 10° E visible
11 Dec - 23:35:48 10° W 23:47:35 54° SSW 23:54:10 10° ESE visible
12 Dec - 01:52:52 10° W 01:58:12 19° SW 02:02:05 10° S night (unlit)
12 Dec - 15:37:38 10° SSE 15:47:07 16° SE 15:56:04 10° ESE daylight
12 Dec - 17:44:15 10° SSW 18:01:24 39° SSE 18:14:35 10° E visible
12 Dec - 19:58:19 10° WSW 20:16:12 61° SSE 20:27:18 10° E visible
12 Dec - 22:15:20 10° W 22:30:06 66° S 22:38:19 10° ESE visible
13 Dec - 00:32:30 10° W 00:42:01 37° SSW 00:47:46 10° SE night (unlit)
13 Dec - 16:27:16 10° SSW 16:42:23 29° SE 16:55:37 10° E daylight
13 Dec - 18:38:41 10° SW 18:57:10 53° SSE 19:10:10 10° E visible
13 Dec - 20:54:41 10° WSW 21:11:54 68° S 21:22:00 10° E visible
13 Dec - 23:12:07 10° W 23:25:08 55° SSW 23:32:25 10° SE visible
14 Dec - 01:29:47 10° W 01:35:51 20° SW 01:40:13 10° S night (unlit)
14 Dec - 15:12:44 10° S 15:23:39 18° SE 15:34:14 10° E daylight
14 Dec - 17:20:10 10° SSW 17:37:55 43° SSE 17:52:16 10° E visible
14 Dec - 19:34:18 10° WSW 19:53:04 65° SSE 20:05:15 10° E visible
14 Dec - 21:51:26 10° W 22:07:25 66° S 22:16:29 10° ESE visible
15 Dec - 00:08:59 10° W 00:19:35 37° SSW 00:25:58 10° SSE visible
15 Dec - 16:03:09 10° SSW 16:18:48 32° SE 16:33:11 10° E daylight
15 Dec - 18:14:44 10° SW 18:33:45 57° SSE 18:47:53 10° E visible
15 Dec - 20:30:43 10° WSW 20:48:56 70° S 21:00:02 10° E visible
15 Dec - 22:48:20 10° W 23:02:31 55° SSW 23:10:37 10° SE visible
16 Dec - 01:06:32 10° W 01:13:24 20° SW 01:18:16 10° S night (unlit)
16 Dec - 14:48:21 10° S 15:00:05 20° SE 15:11:57 10° E daylight
16 Dec - 16:56:18 10° SW 17:14:19 46° SSE 17:29:46 10° E visible
16 Dec - 19:10:24 10° WSW 19:29:46 67° S 19:43:03 10° E visible
16 Dec - 21:27:31 10° W 21:44:35 67° S 21:54:34 10° ESE visible
16 Dec - 23:45:21 10° W 23:57:01 37° SW 00:04:05 10° SSE visible
17 Dec - 15:39:20 10° SSW 15:55:07 34° SE 16:10:31 10° E daylight
17 Dec - 17:50:56 10° SW 18:10:12 60° SSE 18:25:28 10° E visible
17 Dec - 20:06:48 10° W 20:25:48 71° S 20:37:57 10° E visible
17 Dec - 22:24:27 10° W 22:39:47 55° SSW 22:48:42 10° SE visible
18 Dec - 00:43:10 10° W 00:50:49 20° SW 00:56:16 10° S night (unlit)
18 Dec - 14:24:21 10° S 14:36:28 22° SE 14:49:18 10° E daylight
18 Dec - 16:32:39 10° SW 16:50:36 49° SSE 17:07:06 10° E daylight
18 Dec - 18:46:37 10° WSW 19:06:20 69° S 19:20:44 10° E visible
18 Dec - 21:03:35 10° W 21:21:35 67° SSW 21:32:33 10° ESE visible
18 Dec - 23:21:36 10° W 23:34:18 37° SW 23:42:08 10° SSE visible
19 Dec - 13:15:34 10° SE 13:18:29 11° SE 13:21:28 10° ESE daylight
19 Dec - 15:15:45 10° SSW 15:31:22 37° SE 15:47:38 10° E daylight
19 Dec - 17:27:20 10° SW 17:46:32 62° SSE 18:02:53 10° E visible
19 Dec - 19:42:58 10° W 20:02:30 72° S 20:15:45 10° ESE visible
19 Dec - 22:00:32 10° W 22:16:52 54° SSW 22:26:42 10° SE visible
20 Dec - 00:19:40 10° W 00:28:07 21° SW 00:34:09 10° S visible
20 Dec - 14:00:42 10° S 14:12:50 24° SE 14:26:22 10° E daylight
20 Dec - 16:09:12 10° SW 16:26:49 52° SSE 16:44:14 10° E daylight
20 Dec - 18:22:58 10° WSW 18:42:48 71° S 18:58:17 10° E visible
20 Dec - 20:39:41 10° W 20:58:25 67° SSW 21:10:26 10° ESE visible
20 Dec - 22:57:46 10° W 23:11:26 37° SW 23:20:03 10° SSE visible
